Stations météo

réclame
Mon MeteoGroup
Llerena, Espagne (8336): Température de l'air & dewpoint: 21.04.2018 10:00:00 - 27.04.2018 10:00:00 (CEST)Llerena, Espagne (8336): Vitesse du vent & gusts: 21.04.2018 10:00:00 - 27.04.2018 10:00:00 (CEST)Llerena, Espagne (8336): Direction du vent: 21.04.2018 10:00:00 - 27.04.2018 10:00:00 (CEST)Llerena, Espagne (8336): reduced air pressure: 21.04.2018 10:00:00 - 27.04.2018 10:00:00 (CEST)Llerena, Espagne (8336): visibility: 21.04.2018 10:00:00 - 27.04.2018 10:00:00 (CEST)Llerena, Espagne (8336): Ensoleillement: 21.04.2018 10:00:00 - 27.04.2018 10:00:00 (CEST)Llerena, Espagne (8336): Quantités de précipitations: 21.04.2018 10:00:00 - 27.04.2018 10:00:00 (CEST)
Date & Time tt [°C] td [°C] ff [km/h] ff [knt] fx [km/h] fx [knt] dd ppp [hPa] vv [km] sd [min] rr [mm]
27.04.2018 10:00:00 - - - - - - - - - - -
27.04.2018 09:00:00 13,3 11,6 13 7 20 11 W 1015,8 11 59 0,0
27.04.2018 08:00:00 12,6 11,7 13 7 23 13 WSW 1015,7 3,4 3 -
27.04.2018 07:00:00 13,0 11,9 14 7 24 13 WSW 1015,1 5 0 0,0
27.04.2018 06:00:00 13,4 12,1 16 9 - - W 1015,1 6 0 0,0
27.04.2018 05:00:00 14,5 13,1 - - - - - 1015,4 6 0 0,0
27.04.2018 04:00:00 15,4 14,1 - - - - - 1015,7 6 0 0,0
27.04.2018 03:00:00 15,4 14,4 - - - - - 1016,2 4,0 0 0,0
27.04.2018 02:00:00 15,7 14,7 - - - - - 1016,6 3,5 0 -
27.04.2018 01:00:00 16,2 14,9 - - - - - 1016,2 2,5 0 0,0
27.04.2018 00:00:00 17,0 14,8 - - - - - 1016,1 11 0 0,0
26.04.2018 23:00:00 17,5 13,5 - - - - - 1016,1 20 0 0,0
26.04.2018 22:00:00 18,3 13,6 - - - - - 1015,4 20 0 0,0
26.04.2018 21:00:00 19,9 12,8 - - - - - 1014,7 20 4 0,0
26.04.2018 20:00:00 22,6 12,8 - - - - - 1013,4 20 49 -
26.04.2018 19:00:00 24,4 12,3 - - - - - 1013,0 20 57 0,0
26.04.2018 18:00:00 25,4 13,9 - - - - - 1012,8 20 60 0,0
26.04.2018 17:00:00 24,4 9,9 - - - - - 1013,4 20 60 0,0
26.04.2018 16:00:00 24,0 11,7 - - - - - 1013,9 20 60 0,0
26.04.2018 15:00:00 23,3 11,7 26 14 35 19 ESE 1014,5 19 60 0,0
26.04.2018 14:00:00 22,6 12,0 25 14 33 18 E 1014,6 20 60 -
26.04.2018 13:00:00 21,5 12,6 26 14 35 19 ESE 1015,0 20 60 0,0
26.04.2018 12:00:00 20,9 12,3 23 12 28 15 ESE 1015,3 19 60 0,0
26.04.2018 11:00:00 19,4 11,7 17 9 38 20 E 1015,4 20 60 0,0
26.04.2018 10:00:00 17,4 10,3 22 12 34 19 ESE 1015,7 20 60 0,0
26.04.2018 09:00:00 15,7 9,8 11 6 27 14 E 1016,1 20 57 0,0
26.04.2018 08:00:00 12,9 9,2 16 9 28 15 ESE 1016,3 20 0 -
26.04.2018 07:00:00 12,7 10,6 10 5 21 12 E 1016,3 13 0 0,0
26.04.2018 06:00:00 13,1 9,9 5 3 - - E 1016,2 15 0 0,0
26.04.2018 05:00:00 14,5 9,0 - - - - - 1015,9 20 0 0,0
26.04.2018 04:00:00 14,9 8,8 - - - - - 1015,8 20 0 0,0
26.04.2018 03:00:00 13,9 9,7 - - - - - 1016,0 20 0 0,0
26.04.2018 02:00:00 14,7 9,7 - - - - - 1016,4 20 0 -
26.04.2018 01:00:00 15,7 8,4 - - - - - 1016,5 20 0 0,0
26.04.2018 00:00:00 16,6 8,3 - - - - - 1016,1 20 0 0,0
25.04.2018 23:00:00 18,8 11,1 - - - - - 1014,7 19 0 0,0
25.04.2018 22:00:00 19,8 11,0 - - - - - 1014,1 16 0 0,0
25.04.2018 21:00:00 21,9 12,7 - - - - - 1012,7 19 20 0,0
25.04.2018 20:00:00 23,7 12,6 - - - - - 1012,1 13 60 -
25.04.2018 19:00:00 25,0 9,7 - - - - - 1011,8 20 60 0,0
25.04.2018 18:00:00 25,1 7,3 - - - - - 1012,0 20 60 0,0
25.04.2018 17:00:00 25,0 7,6 13 7 36 20 NNE 1012,3 20 60 0,0
25.04.2018 16:00:00 24,4 6,7 16 9 34 18 NNE 1012,9 20 60 0,0
25.04.2018 15:00:00 23,7 10,0 14 8 36 19 NNE 1013,2 20 60 0,0
25.04.2018 14:00:00 22,3 12,0 12 7 30 16 NE 1013,6 20 60 -
25.04.2018 13:00:00 21,2 13,7 12 6 30 16 NE 1014,2 20 60 0,0
25.04.2018 12:00:00 19,9 13,9 11 6 24 13 NE 1015,1 15 60 0,0
25.04.2018 11:00:00 18,2 12,6 10 5 22 12 ENE 1015,5 20 60 0,0
25.04.2018 10:00:00 17,6 12,7 11 6 25 13 E 1014,9 20 60 0,0
25.04.2018 09:00:00 16,1 11,2 16 9 29 15 E 1014,7 20 48 0,0
25.04.2018 08:00:00 13,0 9,3 13 7 24 13 ESE 1015,5 20 0 -
25.04.2018 07:00:00 13,1 8,9 10 5 - - E 1015,2 20 0 0,0
25.04.2018 06:00:00 12,8 9,0 - - - - - 1014,9 20 0 0,0
25.04.2018 05:00:00 13,7 9,3 - - - - - 1014,6 19 0 0,0
25.04.2018 04:00:00 13,9 9,6 - - - - - 1014,3 20 0 0,0
25.04.2018 03:00:00 15,2 9,3 - - - - - 1014,0 20 0 0,0
25.04.2018 02:00:00 15,5 9,2 - - - - - 1014,7 20 0 -
25.04.2018 01:00:00 16,2 9,2 - - - - - 1014,6 20 0 0,0
25.04.2018 00:00:00 15,8 9,7 - - - - - 1014,6 20 0 0,0
24.04.2018 23:00:00 16,6 9,8 - - - - - 1014,3 20 0 0,0
24.04.2018 22:00:00 17,8 11,1 - - - - - 1013,7 20 0 0,0
24.04.2018 21:00:00 19,2 11,4 - - - - - 1012,7 20 21 0,0
24.04.2018 20:00:00 20,8 11,4 - - - - - 1012,1 20 57 -
24.04.2018 19:00:00 21,5 10,3 - - - - - 1012,2 18 57 0,0
24.04.2018 18:00:00 21,3 10,2 - - - - - 1012,1 20 49 0,0
24.04.2018 17:00:00 21,1 10,9 - - - - - 1012,1 20 46 0,0
24.04.2018 16:00:00 21,1 11,4 - - - - - 1012,7 17 48 0,0
24.04.2018 15:00:00 19,8 10,2 - - - - - 1013,0 20 22 0,0
24.04.2018 14:00:00 18,7 10,0 - - - - - 1013,4 20 3 -
24.04.2018 13:00:00 18,5 10,9 - - - - - 1013,5 20 27 0,0
24.04.2018 12:00:00 16,7 10,3 - - - - - 1013,9 20 0 0,0
24.04.2018 11:00:00 15,8 9,4 - - - - - 1014,1 20 0 0,0
24.04.2018 10:00:00 14,9 9,4 - - - - - 1014,4 20 0 0,0
24.04.2018 09:00:00 16,4 8,7 - - - - - 1012,9 13 0 0,0
24.04.2018 08:00:00 14,6 10,2 - - - - - 1014,0 20 0 -
24.04.2018 07:00:00 15,2 9,8 - - - - - 1013,3 20 0 0,0
24.04.2018 06:00:00 15,1 10,3 - - - - - 1012,9 20 0 0,0
24.04.2018 05:00:00 15,6 10,4 - - - - - 1012,9 20 0 0,0
24.04.2018 04:00:00 15,8 10,8 - - - - - 1012,9 20 0 0,0
24.04.2018 03:00:00 16,2 10,8 - - - - - 1013,1 20 0 0,0
24.04.2018 02:00:00 16,4 11,3 - - - - - 1013,0 19 0 -
24.04.2018 01:00:00 17,1 11,8 - - - - - 1013,2 20 0 0,0
24.04.2018 00:00:00 17,4 11,9 - - - - - 1014,2 19 0 0,0
23.04.2018 23:00:00 16,8 13,0 - - - - - 1013,8 20 0 0,0
23.04.2018 22:00:00 17,7 13,1 - - - - - 1012,4 20 0 0,0
23.04.2018 21:00:00 19,2 13,4 - - - - - 1011,6 20 17 0,0
23.04.2018 20:00:00 20,7 13,9 - - - - - 1011,0 20 60 -
23.04.2018 19:00:00 21,3 13,5 - - - - - 1011,0 17 31 0,0
23.04.2018 18:00:00 22,9 13,9 - - - - - 1010,6 20 13 0,0
23.04.2018 17:00:00 23,2 13,7 - - - - - 1010,7 18 59 0,0
23.04.2018 16:00:00 22,8 13,1 17 9 32 18 ENE 1011,2 20 60 0,0
23.04.2018 15:00:00 21,6 13,5 18 10 47 26 E 1011,9 17 51 0,0
23.04.2018 14:00:00 21,2 13,7 26 14 48 26 E 1012,5 14 55 -
23.04.2018 13:00:00 20,3 13,3 24 13 46 25 E 1013,5 19 54 0,0
23.04.2018 12:00:00 19,6 11,1 29 15 45 25 E 1013,9 20 60 0,2
23.04.2018 11:00:00 19,0 11,8 26 14 40 22 E 1013,7 20 60 0,0
23.04.2018 10:00:00 17,1 11,3 18 10 35 19 ENE 1014,4 20 60 0,0
23.04.2018 09:00:00 14,8 10,4 16 9 44 24 NNE 1015,0 20 37 0,0
23.04.2018 08:00:00 12,8 10,9 10 5 34 18 NNE 1016,5 20 0 -
23.04.2018 07:00:00 12,7 11,4 13 7 32 18 NNE 1016,5 20 0 1,4
23.04.2018 06:00:00 13,0 11,8 11 6 32 18 NNE 1017,2 7 0 2,6
23.04.2018 05:00:00 13,1 11,7 14 8 32 18 E 1017,1 5 0 1,2
23.04.2018 04:00:00 13,5 11,9 6 3 27 15 N 1016,7 14 0 2,0
23.04.2018 03:00:00 14,1 12,1 8 4 45 24 WSW 1016,3 6 0 5,2
23.04.2018 02:00:00 15,9 13,1 11 6 29 15 NNE 1015,2 11 0 -
23.04.2018 01:00:00 15,8 13,0 8 4 22 12 W 1014,4 19 0 0,0
23.04.2018 00:00:00 15,7 12,4 4 2 17 9 W 1014,5 19 0 0,0
22.04.2018 23:00:00 16,1 12,8 12 6 26 14 SSE 1014,1 20 0 0,0
22.04.2018 22:00:00 16,9 13,7 7 4 27 15 NW 1012,8 14 0 0,8
22.04.2018 21:00:00 18,6 14,7 10 5 22 12 NNW 1011,7 20 0 0,0
22.04.2018 20:00:00 21,1 12,5 4 2 24 13 N 1011,0 19 47 -
22.04.2018 19:00:00 21,7 11,7 9 5 26 14 ENE 1010,7 20 60 0,0
22.04.2018 18:00:00 22,1 11,4 13 7 27 15 S 1010,3 20 60 0,0
22.04.2018 17:00:00 22,0 12,0 12 7 31 17 SE 1010,2 19 60 0,0
22.04.2018 16:00:00 21,8 11,8 15 8 32 17 SSE 1010,6 19 47 0,0
22.04.2018 15:00:00 20,3 13,5 13 7 26 14 ENE 1011,3 20 30 0,0
22.04.2018 14:00:00 19,1 12,6 13 7 27 15 E 1011,7 20 39 -
22.04.2018 13:00:00 18,2 13,1 13 7 37 20 E 1012,3 19 58 0,0
22.04.2018 12:00:00 15,8 12,3 23 12 36 19 E 1013,1 20 59 0,0
22.04.2018 11:00:00 13,7 11,8 11 6 38 20 E 1013,8 20 6 0,0
22.04.2018 10:00:00 13,1 10,6 26 14 37 20 E 1014,4 20 27 0,0
22.04.2018 09:00:00 11,9 9,9 24 13 34 19 E 1013,6 20 0 0,0
22.04.2018 08:00:00 11,1 9,8 14 8 31 17 E 1014,0 20 0 -
22.04.2018 07:00:00 11,0 9,8 14 8 31 17 E 1014,1 20 0 0,0
22.04.2018 06:00:00 11,1 9,8 15 8 30 16 E 1014,5 20 0 0,0
22.04.2018 05:00:00 11,3 10,2 11 6 32 18 ENE 1015,1 20 0 0,2
22.04.2018 04:00:00 11,8 10,2 13 7 31 17 ENE 1015,6 20 0 0,2
22.04.2018 03:00:00 12,0 10,3 19 11 34 18 E 1016,1 10 0 0,2
22.04.2018 02:00:00 11,5 10,4 13 7 36 20 NE 1016,4 20 0 -
22.04.2018 01:00:00 11,6 10,0 6 3 19 10 ENE 1018,0 16 0 0,2
22.04.2018 00:00:00 12,3 10,8 11 6 39 21 N 1017,3 20 0 0,2
21.04.2018 23:00:00 13,7 12,6 25 13 41 22 NW 1017,5 5 0 1,8
21.04.2018 22:00:00 14,4 12,2 8 5 21 11 NE 1015,5 15 0 0,2
21.04.2018 21:00:00 15,0 12,0 9 5 32 17 ENE 1014,0 18 0 0,2
21.04.2018 20:00:00 15,8 12,5 14 8 35 19 ENE 1013,3 13 25 -
21.04.2018 19:00:00 16,1 12,6 16 8 30 16 E 1013,9 20 21 0,0
21.04.2018 18:00:00 15,9 13,4 11 6 27 15 NE 1013,6 19 24 0,0
21.04.2018 17:00:00 16,7 13,8 18 10 32 18 N 1014,2 13 21 0,2
21.04.2018 16:00:00 14,3 12,2 18 10 40 22 ENE 1014,4 10 0 0,8
21.04.2018 15:00:00 14,7 11,7 21 11 42 23 WNW 1016,4 16 0 0,0
21.04.2018 14:00:00 17,4 12,5 15 8 29 16 W 1015,0 16 16 -
21.04.2018 13:00:00 17,4 11,2 16 9 31 17 SW 1014,9 15 32 0,0
21.04.2018 12:00:00 14,8 11,2 20 11 41 22 ESE 1014,6 20 0 0,0
21.04.2018 11:00:00 14,3 10,5 32 17 45 24 ESE 1014,2 18 14 0,0
21.04.2018 10:00:00 13,1 11,1 30 16 40 22 E 1013,5 16 0 0,0

tt = Température de l'air
td = dewpoint
ff = Vitesse du vent
fx = gusts
dd = Direction du vent
ppp = reduced air pressure
vv = visibility
sd = Ensoleillement
rr = Quantités de précipitations

stations d'obs. à proximité